Погода в Долине

Украина / Ивано-Франковская область     48˚58′27″N   24˚00′09″E
темп.,
°C
ветер,
м/с
пор.,
м/с
влажн.,
%
обл.,
%
осадки,
мм/ч
давл.,
гПа
погр.,
м
17 января, вс
вс1723:00−10˚юз358290 0.0 101894
02:00−11˚юз348273 0.0 101680
05:00−10˚юз358145 0.0 1016126
08:00−10˚зюз228272 0.0 101652
11:00−6˚зсз257298 0.0 1018398
14:00−6˚ссз358298 0.0 1017663
17:00−8˚ссз4795100 0.2 1019345
20:00−10˚сз4994100 0.4 1020407
18 января, пн
пн1823:00−10˚сз3591100 0.1 1021210
02:00−11˚ссз3690100 0.1 1022295
05:00−12˚ссз3793100 0.0 1022244
08:00−14˚сз249698 0.0 102389
11:00−11˚ссз248449 0.0 1024328
14:00−10˚с338342 0.0 1022357
17:00−13˚ссз129776 0.0 102325
20:00−14˚юз009456 0.0 102421
19 января, вт
вт1923:00−13˚юз228743 0.0 102435
02:00−11˚юз238063 0.0 102481
05:00−11˚юз3679100 0.0 1023125
08:00−8˚юз367899 0.0 1023194
11:00−5˚юз41072100 0.0 1022396
14:00−3˚юз41070100 0.0 1020487
17:00−5˚юз41275100 0.0 1019390
20:00−5˚юз31375100 0.0 1019446
20 января, ср
ср2023:00−4˚ююз31076100 0.0 1019311
02:00−4˚ююв2481100 0.0 1017118
05:00−4˚юв2483100 0.0 1016124
08:00−3˚ю2683100 0.0 1016235
11:00+1˚ююз2779100 0.0 1017311
14:00+3˚юз4157999 0.0 1016691
17:00+1˚юз6177636 0.0 1017469
20:00+1˚юз6177826 0.0 1018448
21 января, чт
чт2123:00+3˚юз7207522 0.0 1018577
02:00+3˚юз8217322 0.0 1017617
05:00+4˚юз7207320 0.0 1016740
08:00+3˚юз4147910 0.0 1016460
11:00+5˚юз3128244 0.0 1015573
14:00+6˚ю3118153 0.0 1014670
17:00+3˚юв348222 0.0 101469
20:00+2˚юв348161 0.0 101470